Weather History for EHRD - May, 2014

Change the Weather History Date:

Wednesday, May 28, 2014

  Actual Average Record
Temperature  
Mean Temperature 58 °F -  
Max Temperature 61 °F 66 °F 75 °F (2005)
Min Temperature 55 °F 51 °F 35 °F (2004)
Degree Days  
Heating Degree Days 7    
Growing Degree Days 8 (Base 50)    
Moisture  
Dew Point 55 °F    
Average Humidity 91    
Maximum Humidity 100    
Minimum Humidity 74    
Precipitation  
Precipitation 0.08 in - - ()
Sea Level Pressure  
Sea Level Pressure 29.86 in    
Wind  
Wind Speed 4 mph ()    
Max Wind Speed 9 mph    
Max Gust Speed -    
Visibility 4.9 miles    
Events Rain    
Averages and records for this station are not official NWS values.
T = Trace of Precipitation, MM = Missing Value Source: Averaged Metar Reports

Daily Weather History Graph

Daily Weather History Graph

Search for Another Location

Airport or City:

Trip Planner

Search our weather history database for the weather conditions in past years. The results will help you decide how hot, cold, wet, or windy it might be!

Date:

Astronomy

May. 28, 2014 Rise Set
Actual Time 5:32 AM CEST 9:47 PM CEST
Civil Twilight 4:46 AM CEST 10:33 PM CEST
Nautical Twilight 3:40 AM CEST 11:40 PM CEST
Astronomical Twilight 2:11 AM CEST 1:07 AM CEST
Moon 5:37 AM CEST (5/28) 9:22 PM CEST (5/28)
Length of Visible Light 17h 46m
Length of Day
16h 15m
Waning Crescent, 0% of the Moon is Illuminated
May 28
Waning Crescent
May 28
New
Jun 5
First Quarter
Jun 13
Full
Jun 19
Last Quarter

Hourly Weather History & Observations

Time (CEST) Temp. Dew Point Humidity Pressure Visibility Wind Dir Wind Speed Gust Speed Precip Events Conditions
12:00 AM 58 °F 57 °F 97% 29.84 in 1 mi SW 4.5 mph - - Rain Drizzle
12:25 AM 59.0 °F 57.2 °F 94% 29.83 in 1.6 mi SW 4.6 mph - N/A   Overcast
12:55 AM 57.2 °F 57.2 °F 100% 29.83 in 1.6 mi SW 5.8 mph - N/A   Overcast
1:00 AM 58 °F 57 °F 94% 29.84 in 1 mi SW 4.5 mph - - Rain Rain
1:25 AM 57.2 °F 57.2 °F 100% 29.83 in 1.5 mi SW 3.5 mph - N/A   Mostly Cloudy
1:55 AM 57.2 °F 57.2 °F 100% 29.83 in - WSW 3.5 mph - N/A   Overcast
2:00 AM 57 °F 56 °F 97% 29.84 in 2 mi SW 2.2 mph - -   Mist
2:25 AM 57.2 °F 57.2 °F 100% 29.83 in 3.1 mi SSW 2.3 mph - N/A   Overcast
2:55 AM 57.2 °F 57.2 °F 100% 29.83 in 3.1 mi SW 1.2 mph - N/A   Overcast
3:00 AM 58 °F 57 °F 95% 29.83 in 3 mi Calm Calm - -   Mist
3:25 AM 57.2 °F 57.2 °F 100% 29.80 in 1.6 mi SW 1.2 mph - N/A   Mostly Cloudy
3:55 AM 57.2 °F 57.2 °F 100% 29.80 in 1.7 mi Variable 1.2 mph - N/A   Mostly Cloudy
4:00 AM 58 °F 56 °F 93% 29.83 in 1 mi Calm Calm - -   Mist
4:25 AM 57.2 °F 57.2 °F 100% 29.80 in 1.6 mi Variable 1.2 mph - N/A   Mostly Cloudy
4:55 AM 57.2 °F 57.2 °F 100% 29.80 in 1.6 mi Variable 1.2 mph - N/A   Mostly Cloudy
5:00 AM 57 °F 57 °F 99% 29.83 in 2 mi Calm Calm - -   Mist
5:25 AM 57.2 °F 55.4 °F 94% 29.80 in - SW 3.5 mph - N/A   Overcast
5:55 AM 57.2 °F 55.4 °F 94% 29.83 in 2.8 mi SW 6.9 mph - N/A   Overcast
6:00 AM 57 °F 55 °F 92% 29.83 in 3 mi SSW 8.9 mph - -   Mist
6:25 AM 57.2 °F 55.4 °F 94% 29.83 in - South 8.1 mph - N/A   Overcast
6:55 AM 57.2 °F 55.4 °F 94% 29.83 in 3.1 mi SSW 6.9 mph - N/A   Overcast
7:00 AM 57 °F 55 °F 89% 29.84 in 3 mi SSW 8.9 mph - -   Mist
7:25 AM 57.2 °F 53.6 °F 88% 29.83 in 3.7 mi SSW 6.9 mph - N/A   Overcast
7:55 AM 57.2 °F 53.6 °F 88% 29.83 in 4.3 mi South 6.9 mph - N/A   Overcast
8:00 AM 57 °F 54 °F 84% 29.84 in 4 mi South 6.7 mph - -   Mist
8:25 AM 57.2 °F 53.6 °F 88% 29.83 in 5.0 mi South 8.1 mph - N/A   Overcast
8:55 AM 57.2 °F 53.6 °F 88% 29.83 in 6.2 mi South 8.1 mph - N/A Rain Light Rain
9:00 AM 58 °F 54 °F 82% 29.85 in 6 mi South 6.7 mph - - Rain Light Drizzle
9:25 AM 57.2 °F 53.6 °F 88% 29.83 in 6.2 mi South 6.9 mph - N/A   Mostly Cloudy
9:55 AM 59.0 °F 53.6 °F 82% 29.83 in 6.2 mi South 5.8 mph - N/A   Overcast
10:00 AM 58 °F 54 °F 81% 29.86 in 6 mi South 6.7 mph - - Rain Drizzle
10:25 AM 57.2 °F 53.6 °F 88% 29.86 in 5.0 mi SSE 5.8 mph - N/A   Overcast
10:55 AM 59.0 °F 53.6 °F 82% 29.86 in 5.6 mi South 3.5 mph - N/A   Overcast
11:00 AM 59 °F 54 °F 77% 29.86 in 6 mi South 4.5 mph - -   Mist
11:25 AM 59.0 °F 53.6 °F 82% 29.86 in 6.2 mi South 4.6 mph - N/A   Overcast
11:55 AM 60.8 °F 53.6 °F 77% 29.86 in 6.2 mi South 3.5 mph - N/A   Overcast
12:00 PM 60 °F 54 °F 74% 29.87 in 9 mi South 4.5 mph - -   Partly Cloudy
12:25 PM 59.0 °F 53.6 °F 82% 29.86 in 6.2 mi SSW 4.6 mph - N/A   Overcast
12:55 PM 59.0 °F 55.4 °F 88% 29.86 in 5.0 mi West 3.5 mph - N/A   Overcast
1:00 PM 60 °F 55 °F 77% 29.87 in 5 mi WNW 4.5 mph - -   Mist
1:25 PM 60.8 °F 55.4 °F 82% 29.86 in 5.0 mi WNW 3.5 mph - N/A   Mostly Cloudy
1:55 PM 60.8 °F 53.6 °F 77% 29.86 in 6.2 mi West 3.5 mph - N/A   Overcast
2:00 PM 60 °F 55 °F 79% 29.88 in 7 mi West 2.2 mph - -   Partly Cloudy
2:25 PM 59.0 °F 55.4 °F 88% 29.86 in 6.2 mi Variable 2.3 mph - N/A   Overcast
2:55 PM 60.8 °F 55.4 °F 82% 29.86 in 5.6 mi NNW 1.2 mph - N/A   Overcast
3:00 PM 60 °F 55 °F 78% 29.88 in 6 mi NNW 2.2 mph - - Rain Light Rain Showers
3:25 PM 60.8 °F 55.4 °F 82% 29.86 in 6.2 mi Variable 1.2 mph - N/A   Overcast
3:55 PM 60.8 °F 55.4 °F 82% 29.86 in 6.2 mi Variable 2.3 mph - N/A   Overcast
4:00 PM 60 °F 56 °F 82% 29.88 in 4 mi North 6.7 mph - - Rain Rain
4:25 PM 59.0 °F 57.2 °F 94% 29.86 in - NNE 8.1 mph - N/A Rain Light Rain Showers
4:55 PM 57.2 °F 55.4 °F 94% 29.89 in 1.7 mi North 5.8 mph - N/A Rain Light Rain
5:00 PM 58 °F 56 °F 92% 29.89 in 2 mi NNE 4.5 mph - - Rain Light Rain Showers
5:25 PM 57.2 °F 55.4 °F 94% 29.89 in 3.7 mi NNE 5.8 mph - N/A Rain Heavy Drizzle
5:55 PM 57.2 °F 55.4 °F 94% 29.89 in 4.3 mi NNE 5.8 mph - N/A   Drizzle
6:00 PM 57 °F 56 °F 95% 29.90 in 5 mi NNE 4.5 mph - - Rain Drizzle
6:25 PM 57.2 °F 55.4 °F 94% 29.89 in 5.0 mi NNE 3.5 mph - N/A Rain Heavy Drizzle
6:55 PM 57.2 °F 55.4 °F 94% 29.89 in 5.6 mi NE 5.8 mph - N/A Rain Light Rain
7:00 PM 57 °F 56 °F 94% 29.90 in 6 mi NE 4.5 mph - - Rain Light Rain
7:25 PM 57.2 °F 55.4 °F 94% 29.89 in 5.6 mi NE 4.6 mph - N/A   Drizzle
7:55 PM 57.2 °F 55.4 °F 94% 29.89 in 6.2 mi NE 5.8 mph - N/A   Light Drizzle
8:00 PM 57 °F 56 °F 94% 29.91 in 6 mi NE 6.7 mph - - Rain Light Drizzle
8:25 PM 57.2 °F 55.4 °F 94% 29.89 in 6.2 mi NE 5.8 mph - N/A   Drizzle
8:55 PM 57.2 °F 55.4 °F 94% 29.89 in 6.2 mi NE 5.8 mph - N/A Rain Light Rain
9:00 PM 56 °F 55 °F 96% 29.91 in 10 mi NE 4.5 mph - - Rain Light Drizzle
9:25 PM 55.4 °F 55.4 °F 100% 29.89 in 6.2 mi NE 4.6 mph - N/A   Overcast
9:55 PM 55.4 °F 55.4 °F 100% 29.92 in 6.2 mi NE 3.5 mph - N/A   Overcast
10:00 PM 56 °F 55 °F 95% 29.93 in 19 mi NE 4.5 mph - - Rain Rain
10:25 PM 55.4 °F 55.4 °F 100% 29.92 in 6.2 mi NE 4.6 mph - N/A   Light Drizzle
10:55 PM 55.4 °F 55.4 °F 100% 29.92 in 6.2 mi NE 4.6 mph - N/A   Light Drizzle
11:00 PM 56 °F 55 °F 97% 29.94 in 9 mi NE 4.5 mph - - Rain Light Drizzle
11:25 PM 55.4 °F 55.4 °F 100% 29.92 in 6.2 mi NE 5.8 mph - N/A   Overcast
11:55 PM 55.4 °F 55.4 °F 100% 29.92 in 5.6 mi ENE 6.9 mph - N/A   Overcast